Regional Weather Roundup
Issued by NWS

Home | Current Version | Previous Version | Graphics & Text | Print | Product List | Glossary On
Versions: 1 2 3 4 5 6 7 8 9 10 11 12 13 14 15 16 17 18 19 20 21 22 23 24 25 26 27 28 29 30 31 32 33 34 35 36 37 38 39 40 41 42 43 44 45 46 47 48 49 50
000
ASUS45 KSLC 240510
RWRUT

UTAH REGIONAL WEATHER ROUNDUP
NATIONAL WEATHER SERVICE SALT LAKE CITY UT
1100 PM MDT SAT MAY 23 2015

UTZ001>011-023>025-240600-

NORTHERN UTAH

CITY           SKY/WX    TMP DP  RH WIND       PRES   REMARKS
BRIGHAM CITY   CLEAR     53  45  73 CALM      29.97R
HILL AFB       CLEAR     48  43  83 E9        29.97R
LOGAN          CLEAR     49  43  80 CALM      29.97R
OGDEN          CLEAR     49  44  83 S7        29.96R
PROVO AIRPORT  PTCLDY    52  43  71 S10       29.97S
SALT LAKE CITY PTCLDY    52  45  77 SW5       29.96R
VERNAL         PTCLDY    48  37  65 CALM      29.98R
WENDOVER       CLOUDY    54  48  82 CALM      29.97R
HEBER CITY     MOCLDY    46  39  76 CALM      29.99S
WEST JORDAN    PTCLDY    48  45  87 SW5       29.98R

$$

UTZ012>022-026-027-240600-

SOUTHERN/CENTRAL UTAH

CITY           SKY/WX    TMP DP  RH WIND       PRES   REMARKS
BLANDING       CLOUDY    42  41  95 NE6       30.09R
BRYCE CANYON   CLOUDY    40  37  89 NW6       30.05R
CEDAR CITY     LGT RAIN  47  43  86 SE5       30.00R FOG
DELTA          PTCLDY    46  41  82 SE6       29.98S
HANKSVILLE     CLOUDY    52  45  76 NW7       29.99R
MILFORD        CLOUDY    50  46  86 S9        29.98R
MOAB/CYNLANDS  CLOUDY    54  41  61 VRB3      29.96R
PRICE          PTCLDY    43  36  76 N7        29.99R
ST GEORGE      CLOUDY    61  46  59 NE9       29.92S
KANAB          CLOUDY    52  52 100 N5        30.02R

$$

REGIONAL REPORTS     COLORADO/ARIZONA

CITY           SKY/WX    TMP DP  RH WIND       PRES   REMARKS
CRAIG, CO      MOCLDY    43  35  73 SE8       30.00S
GRAND JUNCTION MOCLDY    45  41  86 E10       29.98S
RIFLE          MOCLDY    47  38  71 E5        29.99F
MONTROSE       MOCLDY    43  42  97 W5        30.04S
CORTEZ         MOCLDY    44  42  93 CALM      30.03F
PAGE, AZ       LGT RAIN  54  51  90 CALM      29.97R
GRAND CANYON   CLOUDY    46  41  82 SW5       30.06R
KINGMAN        CLOUDY    66  38  35 S10       29.95R
FLAGSTAFF      CLOUDY    47  33  58 SW8       30.10R

$$

REGIONAL REPORTS    NEVADA/IDAHO/WYOMING

CITY           SKY/WX    TMP DP  RH WIND       PRES   REMARKS
LAS VEGAS, NV  MOCLDY    76  42  29 S8        29.80R
ELY            LGT RAIN  47  44  90 NW6       30.02R
ELKO           CLOUDY    50  46  86 CALM      30.02S
POCATELLO, ID  CLOUDY    52  52 100 CALM      30.00R
BURLEY         CLOUDY    52  49  89 E5        29.97S
EVANSTON, WY   MOCLDY    42  36  79 SW5       30.03R
ROCK SPRINGS   CLOUDY    42  37  82 NE18      30.00F
KEMMERER       PTCLDY    39  36  87 NW3       30.03R

$$


USA.gov is the U.S. government's official web portal to all federal, state and local government web resources and services.